This is the latest recevied weather packets stored in our database for station/object WV6L-13. If no packets are shown the sender has not sent any weather packets the latest 10 day(s).
| Time | Temp. | Humidity | Pressure | Rain* | Wind** | Luminosity | Snow |
|---|---|---|---|---|---|---|---|
| 1777711194 | 15° C | 24% | 926.8 hPa | - | - | - | - |
| 1777710895 | 15° C | 24% | 926.6 hPa | - | - | - | - |
| 1777710595 | 15.56° C | 23% | 926.7 hPa | - | - | - | - |
| 1777710294 | 16.11° C | 22% | 926.7 hPa | - | - | - | - |
| 1777709995 | 16.67° C | 21% | 926.6 hPa | - | - | - | - |
| 1777709695 | 17.22° C | 20% | 926.6 hPa | - | - | - | - |
| 1777709394 | 17.78° C | 20% | 926.6 hPa | - | - | - | - |
| 1777709095 | 17.22° C | 20% | 926.7 hPa | - | - | - | - |
| 1777708796 | 17.78° C | 20% | 926.6 hPa | - | - | - | - |
| 1777708495 | 17.78° C | 20% | 926.6 hPa | - | - | - | - |
| 1777708195 | 18.33° C | 20% | 926.7 hPa | - | - | - | - |
| 1777707895 | 17.78° C | 20% | 926.5 hPa | - | - | - | - |
| 1777707595 | 17.78° C | 21% | 926.5 hPa | - | - | - | - |
| 1777707295 | 18.33° C | 20% | 926.5 hPa | - | - | - | - |
| 1777706994 | 18.33° C | 20% | 926.5 hPa | - | - | - | - |
| 1777706694 | 18.89° C | 20% | 926.5 hPa | - | - | - | - |
| 1777706394 | 17.78° C | 20% | 926.5 hPa | - | - | - | - |
| 1777706095 | 17.78° C | 21% | 926.7 hPa | - | - | - | - |
| 1777705795 | 17.78° C | 21% | 926.4 hPa | - | - | - | - |
| 1777705494 | 18.33° C | 20% | 926.4 hPa | - | - | - | - |
| 1777705195 | 18.33° C | 20% | 926.4 hPa | - | - | - | - |
| 1777704895 | 18.89° C | 20% | 926.4 hPa | - | - | - | - |
| 1777704595 | 18.89° C | 20% | 926.3 hPa | - | - | - | - |
| 1777704295 | 18.89° C | 20% | 926.4 hPa | - | - | - | - |
| 1777703995 | 18.89° C | 20% | 926.4 hPa | - | - | - | - |
* Rain since midnight (hover to see other rain measurements)
** Current wind speed in m/s (hover to see current wind gust speed)